STARLINK-3043, 49179

Orbit data source: Space-Track

STARLINK-3043, 49179 is a payload satellite owned by SpaceX/Seattle (US) in LEO that was launched on Tue, 14 Sep 2021 UTC via an FALCON 9 launch vehicle from the Air Force Western Test Range (AFWTR). Payload-class satellites include a variety of spacecraft equipped with specific instruments for various scientific and technological missions. These include communications satellites like Starlink; space stations such as the ISS; scientific satellites like the Hubble; Earth observation satellites from companies like Planet Labs, Umbra, and HawkEye 360; GPS; miniature CubeSats for education and research; and military/defense satellites.

Loading next visibility...
Identifier
49179, 2021-082BB
Orbit
LEO
Country
Flag of USUS
Related business
Manufacturer
SpaceX/Seattle
Mission
Operational Commercial Communications
Bus & Motor
STARLINK, Unknown motor
Mass
297 kg wet, ~275 kg dry
Launch date (UTC)
2021-09-14 (4 years ago)
Launch vehicle
FALCON 9
Launch site
Air Force Western Test Range (AFWTR)
Object type
Payload
Rocket body
Debris
Shape & HBR
Box + 1 Pan, 10.1 m
Radar Cross Section
13.562 m², Large (>1 m²)

Expand to show TLE details & history
Last TLE update: 19 hours ago

TLE from 19 hours ago
0 STARLINK-3043
1 49179U 21082BB  25286.37424257  .00000770  00000-0  72284-4 0  9991
2 49179  69.9983 265.8750 0002957 274.8455  85.2366 14.98334868224896
Epoch: 2025-10-13T08:58Z
TLE epoch observation values (Epoch: 2025-10-13T08:58:54.558Z)
Latitude
-0.00003°
Longitude
108.96972°
Altitude
574.295 km
Speed
7.574 km/s
True Right ascension
17h 43m 29s
True Declination
0° 00' 00"
Sunlit
Object was in daylight at epoch
Visualization orbit readout
Latitude
Unknown
Longitude
Unknown
Altitude
Unknown
Speed
Unknown
Apparent Right ascension
Unknown
Apparent Declination
Unknown
Sunlit
N/A
Visualization observer readout
Local Sidereal Time
22:27:46
Azimuth
Unknown
Elevation
Unknown
Doppler factor
Unknown
Orbital elements
Apogee altitude
572.044 km
Perigee altitude
567.935 km
Semi-major axis
6,948.126 km
Eccentricity
0.0003
Inclination
69.9983°
RAAN
265.875°
Arg. of periapsis
274.8455°
True anomaly
85.27037°
Mean anomaly
85.2366°
Eccentric anomaly
85.25348°
Mean motion
3.7475 °/min
Orbital period
96.06 mins
BSTAR
0.000072284
Loading maneuver chart data...
Computing Atmospheric mass density...
Loading historical data...
Loading historical data...
Loading historical data...
Loading historical data...
Loading historical data...
Loading historical data...
Loading historical data...

Documentation

Showing up to 5 results
|